YU7OR-2 Weather Reports


time (UTC)temp
F
wind
direction
speed
knots
gust
knots
rain 1hr
in
rain 24hr
in
rain mn
in
humidity
%
barometer
mb
20260507052558 61 141 0.0 4.3 0.08 0.00 0.00 96 1011.3
20260507052138 61 146 0.0 4.3 0.09 0.00 0.00 90 1011.2
20260507051641 62 88 0.0 1.7 0.04 0.00 0.00 86 1011.1
20260507051238 62 123 0.0 1.7 0.04 0.00 0.00 84 1011.0
20260507050813 62 0.0 0.0 0.02 0.00 0.00 83 1010.8
20260507050338 62 0.0 0.0 0.00 0.00 0.00 82 1011.1
20260507045938 62 0.0 0.0 0.00 0.00 0.00 81 1010.8
20260507045453 62 0.0 0.0 0.00 0.00 0.00 80 1010.9
20260507045018 62 154 0.0 1.7 0.00 0.00 0.00 78 1010.8
20260507044553 62 154 0.0 1.7 0.00 0.00 0.00 78 1010.8
20260507044108 62 124 0.0 1.7 0.00 0.00 0.00 77 1010.8
20260507043618 62 113 0.0 1.7 0.00 0.00 0.00 76 1010.8
20260507043122 62 113 0.0 1.7 0.00 0.00 0.00 76 1010.8
20260507042628 62 0.0 0.0 0.00 0.00 0.00 76 1010.8
20260507042201 62 0.0 0.0 0.00 0.00 0.00 76 1010.7
20260507041722 62 166 0.0 1.7 0.00 0.00 0.00 77 1010.5
20260507041238 61 162 0.0 1.7 0.00 0.00 0.00 78 1010.5
20260507040813 61 166 0.0 1.7 0.00 0.00 0.00 79 1010.3
20260507040353 61 188 0.0 1.7 0.00 0.00 0.00 80 1010.3
20260507035925 61 153 0.0 4.3 0.00 0.00 0.00 82 1010.3
20260507035442 61 159 0.0 1.7 0.00 0.00 0.00 82 1010.3
20260507035003 61 153 0.0 1.7 0.00 0.00 0.00 82 1010.2
20260507034558 61 172 0.0 1.7 0.00 0.00 0.00 82 1010.2
20260507034118 61 122 0.0 1.7 0.00 0.00 0.00 82 1010.2
20260507033622 61 122 0.0 1.7 0.00 0.00 0.00 82 1010.2
20260507033222 61 156 0.0 1.7 0.00 0.00 0.00 82 1010.0
20260507032748 61 0.0 0.0 0.00 0.00 0.00 81 1010.0
20260507032253 61 0.0 0.0 0.00 0.00 0.00 80 1009.8
20260507031823 61 0.0 0.0 0.00 0.00 0.00 80 1009.8
20260507031343 61 144 0.0 1.7 0.00 0.00 0.00 79 1010.1
20260507030928 61 144 0.0 1.7 0.00 0.00 0.00 79 1010.1
20260507030521 62 176 0.0 1.7 0.00 0.00 0.00 78 1010.0
20260507030048 62 168 0.0 4.3 0.00 0.00 0.00 78 1010.0
20260507025613 62 127 0.0 1.7 0.00 0.00 0.00 77 1010.0
20260507025205 62 127 0.0 1.7 0.00 0.00 0.00 77 1010.0
20260507024758 62 163 0.0 1.7 0.00 0.00 0.00 77 1009.8
20260507024353 62 174 0.0 1.7 0.00 0.00 0.00 77 1009.8
20260507023858 62 221 0.0 4.3 0.00 0.00 0.00 76 1009.9
20260507023453 62 221 0.0 4.3 0.00 0.00 0.00 76 1009.9
20260507023028 62 196 0.0 4.3 0.00 0.00 0.00 76 1009.8
20260507022553 62 196 0.0 4.3 0.00 0.00 0.00 76 1009.8
20260507022133 62 164 0.0 1.7 0.00 0.00 0.00 76 1009.8
20260507021713 62 185 0.0 1.7 0.00 0.00 0.00 75 1009.7
20260507021218 62 177 0.0 4.3 0.00 0.00 0.00 75 1009.7
20260507020758 62 121 0.0 4.3 0.00 0.00 0.00 74 1009.7
20260507020333 62 192 0.0 4.3 0.00 0.00 0.00 74 1009.4
20260507015903 62 177 0.0 1.7 0.00 0.00 0.00 74 1009.6
20260507015448 62 178 0.0 1.7 0.00 0.00 0.00 74 1009.4
20260507015018 62 0.0 0.0 0.00 0.00 0.00 74 1009.4
20260507014558 62 185 0.0 1.7 0.00 0.00 0.00 74 1009.3
20260507014100 62 0.0 0.0 0.00 0.00 0.00 74 1009.4
20260507013621 62 193 0.0 1.7 0.00 0.00 0.00 75 1009.4
20260507013128 62 193 0.0 1.7 0.00 0.00 0.00 75 1009.4
20260507012638 62 166 0.0 1.7 0.00 0.00 0.00 75 1009.4
20260507012218 62 181 0.0 1.7 0.00 0.00 0.00 75 1009.3
20260507011733 62 179 0.0 1.7 0.00 0.00 0.00 74 1009.4
20260507011248 62 0.0 0.0 0.00 0.00 0.00 74 1009.2
20260507010838 62 0.0 0.0 0.00 0.00 0.00 74 1009.2
20260507010433 62 192 0.0 1.7 0.00 0.00 0.00 74 1009.4
20260507005938 62 0.0 0.0 0.00 0.00 0.00 74 1009.3
20260507005458 62 159 0.0 1.7 0.00 0.00 0.00 73 1009.1
20260507005028 62 0.0 0.0 0.00 0.00 0.00 74 1009.3
20260507004528 62 0.0 0.0 0.00 0.00 0.00 73 1009.1
20260507004123 62 0.0 0.0 0.00 0.00 0.00 73 1009.1
20260507003722 62 0.0 0.0 0.00 0.00 0.00 73 1009.1
20260507003313 62 196 0.0 1.7 0.00 0.00 0.00 73 1009.1
20260507002823 62 198 0.0 1.7 0.00 0.00 0.00 73 1009.1
20260507002421 62 198 0.0 1.7 0.00 0.00 0.00 72 1009.1
20260507001958 62 215 0.0 1.7 0.00 0.00 0.00 73 1009.1
20260507001513 62 220 0.0 4.3 0.00 0.00 0.00 73 1009.1
20260507001053 62 230 0.0 4.3 0.00 0.00 0.00 74 1009.1
20260507000614 62 230 0.0 4.3 0.00 0.00 0.00 74 1009.1
20260507000118 62 237 0.0 7.0 0.00 0.00 0.00 73 1009.1
20260506235643 62 218 0.0 4.3 0.00 0.00 0.00 72 1009.1
20260506235153 62 218 0.0 4.3 0.00 0.00 0.00 72 1009.1
20260506234721 62 220 0.0 4.3 0.00 0.00 0.00 72 1009.1
20260506234228 62 203 0.0 1.7 0.00 0.00 0.00 74 1009.1
20260506233818 62 212 0.0 4.3 0.00 0.00 0.00 74 1009.1
20260506233418 62 220 0.0 4.3 0.00 0.00 0.00 74 1009.1
20260506233013 62 218 0.0 1.7 0.00 0.00 0.00 74 1009.1
20260506232529 63 180 0.0 1.7 0.00 0.00 0.00 74 1009.1
20260506232028 63 207 0.0 1.7 0.00 0.00 0.00 73 1009.1
20260506231533 63 213 0.0 1.7 0.00 0.00 0.00 72 1008.9
20260506231108 63 213 0.0 1.7 0.00 0.00 0.00 72 1008.9
20260506230618 63 255 0.0 4.3 0.00 0.00 0.00 72 1008.8
20260506230148 63 189 0.0 1.7 0.00 0.00 0.00 72 1008.8
20260506225653 63 218 0.0 4.3 0.00 0.00 0.00 71 1008.9
20260506225253 63 218 0.0 4.3 0.00 0.00 0.00 71 1008.9
20260506224848 63 252 0.0 7.0 0.00 0.00 0.00 71 1008.9
20260506224352 64 241 0.0 7.0 0.00 0.00 0.00 71 1009.0
20260506223941 64 215 0.0 4.3 0.00 0.00 0.00 70 1009.1
20260506223448 64 264 0.0 1.7 0.00 0.00 0.00 70 1008.8
20260506223008 64 228 0.0 4.3 0.00 0.00 0.00 69 1009.1
20260506222558 64 247 0.0 7.0 0.00 0.00 0.00 68 1009.0
20260506222058 65 272 0.0 7.0 0.00 0.00 0.00 68 1008.9
20260506221634 65 272 0.0 7.0 0.00 0.00 0.00 68 1008.9
20260506221224 65 271 0.0 7.0 0.00 0.00 0.00 67 1008.9
20260506220818 65 264 0.0 7.0 0.00 0.00 0.00 67 1008.9
20260506220334 65 281 0.0 7.0 0.00 0.00 0.00 67 1008.8
20260506215844 65 236 0.0 4.3 0.00 0.00 0.00 66 1008.6
20260506215349 65 278 0.0 11.3 0.00 0.00 0.00 66 1008.6
20260506214929 65 304 0.0 8.7 0.00 0.00 0.00 66 1008.6
20260506214444 66 261 0.0 7.0 0.00 0.00 0.00 66 1008.6
20260506213949 66 284 0.0 8.7 0.00 0.00 0.00 66 1008.8
20260506213539 66 279 0.0 7.0 0.00 0.00 0.00 65 1008.8
20260506213054 66 276 0.0 8.7 0.00 0.00 0.00 65 1008.9
20260506212644 66 276 0.0 8.7 0.00 0.00 0.00 65 1008.9
20260506212229 66 263 0.0 8.7 0.00 0.00 0.00 65 1008.9
20260506211809 66 263 0.0 8.7 0.00 0.00 0.00 65 1008.9
20260506211349 66 266 0.0 8.7 0.00 0.00 0.00 64 1009.1
20260506210949 66 254 0.0 8.7 0.00 0.00 0.00 64 1009.1
20260506210449 67 261 0.0 7.0 0.00 0.00 0.00 64 1009.1
20260506210029 67 241 0.0 13.0 0.00 0.00 0.00 63 1009.1
20260506205528 67 252 0.0 13.0 0.00 0.00 0.00 62 1009.3
20260506205114 67 264 0.0 13.0 0.00 0.00 0.00 61 1009.5
20260506204634 67 264 0.0 13.0 0.00 0.00 0.00 61 1009.5
20260506204234 67 259 0.0 13.0 0.00 0.00 0.00 59 1009.7
20260506203738 67 247 0.0 11.3 0.00 0.00 0.00 58 1009.4
20260506203249 67 251 0.0 17.4 0.00 0.00 0.00 57 1009.1
20260506202824 67 239 0.0 13.0 0.00 0.00 0.00 56 1009.1
20260506202334 67 247 0.0 20.0 0.00 0.00 0.00 55 1009.1
20260506201849 67 276 0.0 11.3 0.00 0.00 0.00 54 1009.0
20260506201414 67 257 0.0 11.3 0.00 0.00 0.00 54 1008.3
20260506200919 68 213 0.0 1.7 0.00 0.00 0.00 54 1008.2
20260506200434 68 220 0.0 1.7 0.00 0.00 0.00 50 1008.0
20260506200027 68 0.0 0.0 0.00 0.00 0.00 49 1007.8
20260506195604 68 0.0 0.0 0.00 0.00 0.00 49 1007.8
20260506195118 68 0.0 0.0 0.00 0.00 0.00 49 1007.8
20260506194618 68 0.0 0.0 0.00 0.00 0.00 49 1007.8
20260506194118 69 0.0 0.0 0.00 0.00 0.00 48 1007.7
20260506193654 69 0.0 0.0 0.00 0.00 0.00 48 1007.7
20260506193238 69 102 0.0 1.7 0.00 0.00 0.00 48 1007.9
20260506192814 69 0.0 0.0 0.00 0.00 0.00 48 1007.8
20260506192401 69 0.0 0.0 0.00 0.00 0.00 47 1007.7
20260506191954 70 0.0 0.0 0.00 0.00 0.00 47 1007.6
20260506191504 70 0.0 0.0 0.00 0.00 0.00 46 1007.5
20260506191054 70 0.0 0.0 0.00 0.00 0.00 46 1007.5
20260506190609 70 0.0 0.0 0.00 0.00 0.00 46 1007.5
20260506190114 70 0.0 0.0 0.00 0.00 0.00 45 1007.5
20260506185704 70 0.0 0.0 0.00 0.00 0.00 45 1007.7
20260506185234 70 0.0 0.0 0.00 0.00 0.00 46 1007.7
20260506184804 70 0.0 0.0 0.00 0.00 0.00 45 1007.7
20260506184304 71 0.0 0.0 0.00 0.00 0.00 45 1007.7
20260506183819 71 0.0 0.0 0.00 0.00 0.00 45 1007.5
20260506183344 71 0.0 0.0 0.00 0.00 0.00 46 1007.5
20260506182914 72 0.0 0.0 0.00 0.00 0.00 46 1007.5
20260506182444 72 0.0 0.0 0.00 0.00 0.00 45 1007.5
20260506181954 72 0.0 0.0 0.00 0.00 0.00 44 1007.4
20260506181514 73 157 0.0 1.7 0.00 0.00 0.00 45 1007.4
20260506181109 73 0.0 0.0 0.00 0.00 0.00 45 1007.5
20260506180644 73 0.0 0.0 0.00 0.00 0.00 45 1007.5
20260506180149 73 0.0 0.0 0.00 0.00 0.00 44 1007.4
20260506175739 74 0.0 0.0 0.00 0.00 0.00 44 1007.4
20260506175338 74 0.0 0.0 0.00 0.00 0.00 45 1007.2
20260506174909 74 0.0 0.0 0.00 0.00 0.00 44 1007.4
20260506174438 75 0.0 0.0 0.00 0.00 0.00 45 1007.5
20260506173949 75 0.0 0.0 0.00 0.00 0.00 45 1007.4
20260506173529 76 0.0 0.0 0.00 0.00 0.00 45 1007.3
20260506173118 76 0.0 0.0 0.00 0.00 0.00 45 1007.3
20260506172654 76 0.0 0.0 0.00 0.00 0.00 45 1007.3
20260506172234 77 0.0 0.0 0.00 0.00 0.00 44 1007.5
20260506171809 77 0.0 0.0 0.00 0.00 0.00 44 1007.5
20260506171319 78 0.0 0.0 0.00 0.00 0.00 44 1007.3
20260506170820 78 0.0 0.0 0.00 0.00 0.00 44 1007.5
20260506170404 78 0.0 0.0 0.00 0.00 0.00 43 1007.5
20260506165904 78 0.0 0.0 0.00 0.00 0.00 43 1007.5
20260506165458 79 0.0 0.0 0.00 0.00 0.00 43 1007.5
20260506164959 79 153 0.0 1.7 0.00 0.00 0.00 43 1007.5
20260506164504 79 77 0.0 4.3 0.00 0.00 0.00 43 1007.5
20260506164049 79 118 0.0 1.7 0.00 0.00 0.00 43 1007.5
20260506163554 80 123 0.0 1.7 0.00 0.00 0.00 43 1007.5
20260506163114 80 113 0.0 1.7 0.00 0.00 0.00 43 1007.5
20260506162629 80 100 0.0 1.7 0.00 0.00 0.00 43 1007.7
20260506162204 80 100 0.0 1.7 0.00 0.00 0.00 43 1007.7
20260506161749 81 171 0.0 1.7 0.00 0.00 0.00 43 1007.6
20260506161304 81 86 0.0 4.3 0.00 0.00 0.00 43 1007.8
20260506160904 81 179 0.0 1.7 0.00 0.00 0.00 43 1007.8
20260506160436 81 44 0.0 4.3 0.00 0.00 0.00 43 1007.8
20260506160004 81 190 0.0 1.7 0.00 0.00 0.00 43 1007.9
20260506155534 80 199 0.0 4.3 0.00 0.00 0.00 43 1007.9
20260506155104 80 209 0.0 4.3 0.00 0.00 0.00 43 1008.1
20260506154658 80 209 0.0 4.3 0.00 0.00 0.00 43 1008.1
20260506154234 80 169 0.0 4.3 0.00 0.00 0.00 43 1007.9
20260506153759 80 190 0.0 4.3 0.00 0.00 0.00 43 1008.0
20260506153344 81 163 0.0 4.3 0.00 0.00 0.00 43 1008.0
20260506152918 81 162 0.0 4.3 0.00 0.00 0.00 43 1008.4
20260506152504 81 140 0.0 1.7 0.00 0.00 0.00 43 1008.3
20260506152038 82 120 0.0 4.3 0.00 0.00 0.00 43 1008.3
20260506151559 81 178 0.0 4.3 0.00 0.00 0.00 44 1008.3
20260506151119 81 168 0.0 7.0 0.00 0.00 0.00 43 1008.2
20260506150709 81 168 0.0 7.0 0.00 0.00 0.00 43 1008.2
20260506150249 81 179 0.0 1.7 0.00 0.00 0.00 45 1008.4
20260506145838 80 211 0.0 1.7 0.00 0.00 0.00 43 1008.3
20260506145409 80 203 0.0 7.0 0.00 0.00 0.00 43 1008.4
20260506145009 80 183 0.0 7.0 0.00 0.00 0.00 43 1008.5
20260506144544 80 138 0.0 4.3 0.00 0.00 0.00 43 1008.5
20260506144049 81 167 0.0 4.3 0.00 0.00 0.00 43 1008.5
20260506143618 81 167 0.0 4.3 0.00 0.00 0.00 43 1008.5
20260506143124 81 168 0.0 8.7 0.00 0.00 0.00 43 1008.5
20260506142658 81 121 0.0 4.3 0.00 0.00 0.00 43 1008.5
20260506142254 81 121 0.0 4.3 0.00 0.00 0.00 43 1008.5
20260506141838 81 170 0.0 1.7 0.00 0.00 0.00 43 1008.7
20260506141438 81 164 0.0 8.7 0.00 0.00 0.00 43 1008.7
20260506141024 80 87 0.0 7.0 0.00 0.00 0.00 44 1008.7
20260506140609 80 197 0.0 7.0 0.00 0.00 0.00 43 1008.8
20260506140129 80 171 0.0 4.3 0.00 0.00 0.00 43 1008.7
20260506135709 80 171 0.0 4.3 0.00 0.00 0.00 43 1008.7
20260506135234 79 153 0.0 4.3 0.00 0.00 0.00 43 1008.7
20260506134734 80 95 0.0 7.0 0.00 0.00 0.00 43 1008.9
20260506134334 80 55 0.0 8.7 0.00 0.00 0.00 43 1008.9
20260506133844 80 55 0.0 8.7 0.00 0.00 0.00 43 1008.9
20260506133434 80 67 0.0 4.3 0.00 0.00 0.00 43 1009.0
20260506132938 80 94 0.0 11.3 0.00 0.00 0.00 43 1009.1
20260506132509 80 193 0.0 4.3 0.00 0.00 0.00 43 1009.1
20260506132018 80 194 0.0 7.0 0.00 0.00 0.00 43 1009.1
20260506131549 80 146 0.0 8.7 0.00 0.00 0.00 43 1009.1
20260506131114 80 146 0.0 8.7 0.00 0.00 0.00 43 1009.1
20260506130624 80 175 0.0 7.0 0.00 0.00 0.00 43 1009.1
20260506130134 79 58 0.0 8.7 0.00 0.00 0.00 43 1009.3
20260506125654 79 58 0.0 8.7 0.00 0.00 0.00 43 1009.3
20260506125218 79 112 0.0 8.7 0.00 0.00 0.00 43 1009.4
20260506124738 79 164 0.0 1.7 0.00 0.00 0.00 43 1009.5
20260506124309 78 166 0.0 8.7 0.00 0.00 0.00 43 1009.6
20260506123818 78 163 0.0 7.0 0.00 0.00 0.00 43 1009.6
20260506123414 78 76 0.0 8.7 0.00 0.00 0.00 43 1009.5
20260506122954 79 136 0.0 7.0 0.00 0.00 0.00 43 1009.6
20260506122517 79 149 0.0 7.0 0.00 0.00 0.00 43 1009.7
20260506122054 78 69 0.0 7.0 0.00 0.00 0.00 43 1009.8
20260506121614 78 69 0.0 7.0 0.00 0.00 0.00 43 1009.8
20260506121149 78 72 0.0 7.0 0.00 0.00 0.00 43 1010.1
20260506120718 78 127 0.0 8.7 0.00 0.00 0.00 43 1010.2
20260506120238 78 174 0.0 8.7 0.00 0.00 0.00 43 1009.9
20260506115749 78 129 0.0 7.0 0.00 0.00 0.00 43 1009.9
20260506115258 78 111 0.0 4.3 0.00 0.00 0.00 43 1010.2
20260506114809 78 77 0.0 8.7 0.00 0.00 0.00 43 1010.2
20260506114329 78 125 0.0 4.3 0.00 0.00 0.00 43 1010.2
20260506113901 78 111 0.0 7.0 0.00 0.00 0.00 43 1010.2
20260506113459 78 70 0.0 8.7 0.00 0.00 0.00 43 1010.3
20260506113029 78 67 0.0 4.3 0.00 0.00 0.00 43 1010.4
20260506112558 78 83 0.0 8.7 0.00 0.00 0.00 43 1010.3
20260506112129 78 83 0.0 8.7 0.00 0.00 0.00 43 1010.3
20260506111644 77 120 0.0 8.7 0.00 0.00 0.00 43 1010.4
20260506111234 77 104 0.0 4.3 0.00 0.00 0.00 43 1010.5
20260506110829 77 88 0.0 7.0 0.00 0.00 0.00 43 1010.6
20260506110354 77 67 0.0 8.7 0.00 0.00 0.00 43 1010.5
20260506105909 77 141 0.0 1.7 0.00 0.00 0.00 43 1010.5
20260506105434 77 109 0.0 8.7 0.00 0.00 0.00 43 1010.6
20260506104938 77 80 0.0 8.7 0.00 0.00 0.00 43 1010.7
20260506104519 77 136 0.0 11.3 0.00 0.00 0.00 44 1010.8
20260506104038 77 172 0.0 8.7 0.00 0.00 0.00 43 1010.6
20260506103619 77 191 0.0 11.3 0.00 0.00 0.00 43 1010.8
20260506103214 77 191 0.0 11.3 0.00 0.00 0.00 43 1010.8
20260506102744 77 179 0.0 7.0 0.00 0.00 0.00 44 1010.7
20260506102248 77 177 0.0 7.0 0.00 0.00 0.00 44 1010.8
20260506101754 77 218 0.0 4.3 0.00 0.00 0.00 44 1010.8
20260506101344 77 195 0.0 4.3 0.00 0.00 0.00 43 1010.9
20260506100914 77 195 0.0 4.3 0.00 0.00 0.00 43 1010.9
20260506100418 76 158 0.0 8.7 0.00 0.00 0.00 44 1011.0
20260506095954 76 65 0.0 7.0 0.00 0.00 0.00 44 1011.0
20260506095509 76 187 0.0 8.7 0.00 0.00 0.00 43 1011.2
20260506095029 76 215 0.0 4.3 0.00 0.00 0.00 44 1011.2
20260506094604 76 169 0.0 7.0 0.00 0.00 0.00 44 1011.1
20260506094122 76 169 0.0 7.0 0.00 0.00 0.00 44 1011.1
20260506093714 76 93 0.0 1.7 0.00 0.00 0.00 44 1011.3
20260506093234 76 197 0.0 4.3 0.00 0.00 0.00 44 1011.3
20260506092814 76 203 0.0 7.0 0.00 0.00 0.00 44 1011.2
20260506092329 76 207 0.0 7.0 0.00 0.00 0.00 43 1011.3
20260506091849 76 248 0.0 4.3 0.00 0.00 0.00 43 1011.5
20260506091354 75 244 0.0 8.7 0.00 0.00 0.00 44 1011.4
20260506090854 75 230 0.0 11.3 0.00 0.00 0.00 44 1011.4
20260506090434 75 206 0.0 7.0 0.00 0.00 0.00 44 1011.3
20260506090009 75 136 0.0 4.3 0.00 0.00 0.00 44 1011.3
20260506085524 75 186 0.0 7.0 0.00 0.00 0.00 45 1011.4
20260506085054 75 186 0.0 7.0 0.00 0.00 0.00 45 1011.4
20260506084649 75 234 0.0 7.0 0.00 0.00 0.00 45 1011.2
20260506084154 75 140 0.0 8.7 0.00 0.00 0.00 44 1011.5
20260506083659 75 213 0.0 4.3 0.00 0.00 0.00 44 1011.3
20260506083234 74 179 0.0 7.0 0.00 0.00 0.00 44 1011.3
20260506082829 74 176 0.0 1.7 0.00 0.00 0.00 44 1011.4
20260506082329 74 152 0.0 7.0 0.00 0.00 0.00 45 1011.2
20260506081914 73 116 0.0 7.0 0.00 0.00 0.00 45 1011.2
20260506081454 73 158 0.0 4.3 0.00 0.00 0.00 45 1011.3
20260506080959 72 151 0.0 4.3 0.00 0.00 0.00 45 1011.2
20260506080510 72 82 0.0 7.0 0.00 0.00 0.00 46 1011.2
20260506073439 70 129 0.0 7.0 0.00 0.00 0.00 46 1011.1
20260506072954 70 121 0.0 8.7 0.00 0.00 0.00 47 1011.2
20260506072529 70 114 0.0 7.0 0.00 0.00 0.00 47 1011.2
20260506072029 70 175 0.0 4.3 0.00 0.00 0.00 47 1011.3
20260506071618 70 175 0.0 4.3 0.00 0.00 0.00 47 1011.3
20260506071124 70 75 0.0 7.0 0.00 0.00 0.00 48 1011.4
20260506070644 69 99 0.0 7.0 0.00 0.00 0.00 48 1011.5
20260506070234 69 111 0.0 7.0 0.00 0.00 0.00 48 1011.5
20260506062249 64 160 0.0 4.3 0.00 0.00 0.00 55 1011.4
20260506061829 63 98 0.0 1.7 0.00 0.00 0.00 55 1011.2
20260506061339 63 114 0.0 1.7 0.00 0.00 0.00 54 1011.3
20260506060904 62 149 0.0 1.7 0.00 0.00 0.00 56 1011.3
20260506060454 61 81 0.0 4.3 0.00 0.00 0.00 55 1011.3